#timestamp,LO_Frequency,Hit,StdDev 
1561017615.5,286046993.1,N
1561017635.3,286046993.9,N
1561017655.1,286046996.9,N
1561017675.9,286046998.9,N
1561017695.7,286046995.0,N
1561017715.5,286046995.5,N
1561017735.4,286047011.9,Y
1561017755.2,286046996.4,P
1561017775.1,286046991.9,P
1561017776.0,286046991.9,P
1561017795.8,286046994.0,N
1561017815.6,286046993.5,Y
1561017835.5,286047007.3,P
1561017855.3,286047011.5,N
1561017875.2,286047015.3,N
1561017895.9,286047008.0,N
1561017915.7,286047007.9,N
1561017935.6,286047011.2,N
1561017955.4,286047010.3,N
1561017975.2,286047009.0,N
1561017995.1,286047010.7,N
1561017996.0,286047010.7,N
1561018015.8,286047001.7,N
1561018035.7,286046996.9,N
1561018055.5,286046997.6,N
1561018075.3,286046994.2,N
1561018095.2,286046990.1,N
1561018115.0,286046990.4,N
1561018115.9,286046990.4,N
1561018135.8,286046985.5,N
1561018155.6,286046983.1,N
1561018175.4,286046981.7,N
1561018195.3,286046978.9,N
1561018215.1,286046981.7,N
1561018235.8,286046978.5,N
1561018255.7,286046975.8,N
1561018275.5,286046977.2,N
1561018295.4,286046972.6,N
1561018315.2,286046974.7,N
1561018335.0,286046975.2,N
1561018335.9,286046975.2,N
1561018355.8,286046972.9,N
1561018375.6,286046971.7,N
1561018395.4,286046970.1,N
1561018415.3,286046970.7,N
1561018435.1,286046973.8,N
1561018455.9,286046977.9,N
1561018475.7,286046979.6,N
1561018495.5,286046975.0,N
1561018515.4,286046972.0,N
1561018535.2,286046970.4,N
1561018555.1,286046973.7,N
1561018556.0,286046973.7,N
1561018575.8,286046969.3,Y
1561018595.6,286046994.5,P
1561018615.5,286046988.5,N
1561018635.3,286046987.3,N
1561018655.1,286046986.0,N
1561018675.9,286046982.8,Y
1561018695.7,286046994.1,P
1561018715.6,286046990.4,N
1561018735.4,286046988.9,P
1561018755.2,286046985.3,Y
1561018775.1,286046995.9,P
1561018776.0,286046995.9,N
1561018795.8,286046994.5,N
1561018815.7,286046991.9,Y
1561018835.5,286046998.9,P
1561018855.3,286046999.0,N
1561018875.2,286046997.3,N
1561018895.0,286046997.4,N
1561018895.9,286046997.4,N
1561018915.4,286047005.9,Y
1561018935.2,286047005.7,P
1561018955.1,286047003.2,N
1561018956.0,286047003.2,N
1561018975.8,286047001.6,N
1561018995.7,286047001.1,N
1561019015.5,286046999.6,N
1561019035.3,286046995.3,N
1561019055.2,286046995.7,N
1561019075.0,286046993.6,N
1561019075.9,286046993.6,N
1561019095.8,286046993.3,N
1561019115.6,286046992.2,N
1561019135.4,286046994.8,N
1561019155.3,286046992.8,N
1561019175.1,286046992.8,N
1561019195.8,286046993.0,N
1561019215.7,286046993.9,N
1561019235.5,286046990.6,N
1561019255.4,286046987.7,N
1561019275.2,286046987.7,N
1561019295.0,286046985.5,N
1561019295.9,286046985.5,N
1561019315.8,286046984.5,N
1561019335.6,286046985.3,N
1561019355.4,286046987.7,N
1561019375.3,286046987.7,N
1561019395.1,286046988.1,N
1561019415.9,286046985.6,N
1561019435.7,286046982.7,N
1561019455.5,286046979.7,Y
1561019475.4,286046984.9,P
1561019495.3,286046986.6,P
1561019515.1,286046985.4,P
1561019535.9,286046988.2,Y
1561019555.7,286047000.7,P
1561019575.6,286046998.5,N
1561019595.4,286047005.4,N
1561019615.2,286047009.2,N
1561019635.1,286047003.5,N
1561019636.0,286047003.5,N
1561019655.8,286047000.6,N
1561019675.6,286046997.4,N
1561019695.5,286046994.9,N
1561019715.3,286046998.1,N
1561019735.2,286046998.3,N
1561019755.9,286046997.0,N
1561019775.7,286046994.8,N
1561019795.6,286046991.8,N
1561019815.4,286046994.7,N
1561019835.3,286046992.6,N
1561019855.1,286046991.1,N
1561019856.0,286046991.1,N
1561019875.8,286046987.0,N
1561019895.7,286046987.7,N
1561019915.5,286046985.5,N
1561019935.3,286046990.0,N
1561019955.2,286046991.2,N
1561019975.0,286046992.3,N
1561019975.9,286046992.3,N
1561019995.8,286046988.8,N
1561020015.6,286046989.8,N
1561020035.4,286046984.9,N
1561020055.3,286046984.9,N
1561020075.1,286046985.2,N
1561020095.9,286046985.4,N
1561020115.7,286046988.3,N
1561020135.5,286046984.1,N
1561020155.4,286046982.9,N
1561020175.2,286046980.4,Y
1561020195.0,286046991.0,P
1561020195.9,286046986.3,P
1561020215.8,286046989.3,P
1561020235.6,286046989.0,Y
1561020255.5,286046999.0,P
1561020275.3,286047002.1,N
1561020295.1,286047002.3,N
1561020315.9,286047005.7,N
1561020335.7,286047005.8,N
1561020355.6,286047001.4,N
1561020375.4,286047002.1,N
1561020395.2,286046998.3,N
1561020415.1,286046998.1,N
1561020416.0,286046998.1,N
1561020435.8,286046993.4,N
1561020455.6,286046994.2,N
1561020475.5,286046992.0,N
1561020495.3,286046993.7,N
1561020515.2,286046996.3,N
1561020535.9,286046993.8,N
1561020555.7,286046996.4,N
1561020575.6,286046994.8,N
1561020595.4,286046992.5,N
1561020615.2,286046991.8,N
1561020635.1,286046991.0,N
1561020636.0,286046991.0,N
1561020655.8,286046989.4,N
1561020675.7,286046986.9,N
1561020695.5,286046989.1,N
1561020715.3,286046989.3,N
1561020735.2,286046984.3,Y
1561020755.0,286046991.6,P
1561020755.9,286046991.6,P
1561020775.8,286046989.6,P
1561020795.6,286046990.5,Y
1561020815.4,286046999.8,P
1561020835.3,286047005.8,N
1561020855.1,286047005.2,N
1561020875.8,286047002.6,N
1561020895.7,286046997.9,N
1561020915.5,286046995.3,N
1561020935.4,286046997.8,N
1561020955.2,286046995.5,N
1561020975.0,286046992.4,N
1561020975.9,286046992.4,N
1561020995.8,286046999.6,N
1561021015.6,286047001.1,N
1561021035.5,286046996.5,N
1561021055.3,286046997.0,N
1561021075.1,286046993.3,N
1561021095.9,286046995.7,N
1561021115.7,286046995.4,N
1561021135.5,286046997.3,N
1561021155.4,286046999.3,N
1561021175.2,286046998.5,N
1561021195.1,286046998.6,N
1561021196.0,286046998.6,N
